Location: Heiligenberg
(48.5381°N, 7.3897°E)
Time: 20:52:45
(UTC+00:00)

USA 306 - Pass Details

Date: 26 May 2022
Orbit: 545 x 556 km, 54.0° (Epoch: 20 June)

Event Time Altitude Azimuth Distance (km) Brightness Sun altitude
Exits shadow 01:42:37 14° 259° (W) 1,614 4.8 -14.1°
Maximum altitude 01:46:10 61° 338° (NNW) 637 3.3 -13.8°
Drops below altitude 10° 01:50:20 10° 60° (ENE) 1,851 6.6 -13.4°
Sets 01:52:37 0° 64° (ENE) 2,750 7.5 -13.2°
